Regional Weather Roundup
Issued by NWS Midland/Odessa, TX

Skip options and go directly to product.
Home | Oldest Version | Previous Version | Current Version | All | Text Only | Save Text | Print | Product List | Glossary Off

Skip product version selection by date and time.   

018
ASUS44 KMAF 250210
RWRMAF
MIDLAND AREA WEATHER ROUNDUP
NATIONAL WEATHER SERVICE MIDLAND TX
900 PM CDT THU APR 24 2014

...IN SOUTHWEST TEXAS AND SOUTHEAST NEW MEXICO...

CITY           SKY/WX    TMP DP  RH WIND       PRES   REMARKS
ALPINE         CLEAR     69  16  13 CALM      30.10R
ANDREWS        FAIR      68  30  24 E5        29.98R
ARTESIA        PTCLDY    70  25  18 SE6       29.96R
BIG SPRING     CLEAR     74  29  19 CALM      29.99R
CARLSBAD       PTCLDY    71  24  17 SE6       29.94R
DRYDEN           N/A     79  24  13 NE8       29.91R
FORT STOCKTON  CLEAR     72  24  16 E7        29.97R
GUAD PASS      CLEAR     68   9  10 W20       30.07R
HOBBS          MOCLDY    66  21  18 E8        29.99S
MARFA          CLEAR     66  10  11 NE12      30.07R
MIDLAND AIRPK  CLEAR     73  28  18 NE5       29.98R
MIDLAND INTL   CLEAR     73  29  19 E5        29.97R
ODESSA         CLEAR     69  26  20 MISG      29.97R
PECOS          CLEAR     70  33  25 E8        29.93R
PRESIDIO       FAIR      85  16   8 CALM      29.90R
SEMINOLE       CLEAR     69  30  23 CALM      29.99R
SNYDER         PTCLDY    74  20  12 N3        29.97R
WINK           CLEAR     73  26  17 E9        29.93S
$$
...OTHER STATIONS IN TEXAS...

CITY           SKY/WX    TMP DP  RH WIND       PRES   REMARKS
ABILENE        CLEAR     72  32  23 NE7       29.95R
AMARILLO       CLOUDY    63  15  15 E7        29.96R
AUSTIN         PTCLDY    72  64  76 CALM      29.86R
BROWNSVILLE    MOCLDY    75  72  90 E8        29.84R
CORPUS CHRISTI PTCLDY    75  69  81 SE9       29.84R
DALLAS FTW     PTCLDY    71  45  39 N10       29.89R
DEL RIO        CLOUDY    86  21   9 N6        29.83R
EL PASO        PTCLDY    78  11   8 CALM      29.95S
HOUSTON INT    CLEAR     76  66  71 S5        29.86R
LUBBOCK        CLOUDY    67  26  21 E6        29.97S
SAN ANGELO     CLEAR     72  30  21 NE5       29.93R
SAN ANTONIO    CLEAR     79  63  57 E6        29.87R
WACO           CLEAR     71  45  39 NW6       29.89R
WICHITA FALLS  NOT AVBL
$$
...OTHER LOCATIONS IN NEW MEXICO...

CITY           SKY/WX    TMP DP  RH WIND       PRES   REMARKS
ALAMAGORDO     PTCLDY    66   9  10 S7        29.98S
ALBUQUERQUE    PTCLDY    67   9  10 W3        30.01R
CANNON AFB     NOT AVBL
CLOVIS         CLOUDY    63  28  27 S8        30.00S
HOLLOMAN AFB   NOT AVBL
ROSWELL        CLEAR     69  23  17 SE7       29.94S
RUIDOSO        PTCLDY    59   1  10 SW14      30.12R
SANTA FE       CLEAR     58 -15   5 NW3       30.04R
TRUTH OR CONSE CLEAR     73   5   7 SW13      29.95R
TUCUMCARI      MOCLDY    67  22  18 S10       29.92R
$$

USA.gov is the U.S. government's official web portal to all federal, state and local government web resources and services.